Skip Page Navigation
NASA JPL Caltech
NASA Logo - Jet Propulsion Laboratory + View the NASA Portal
+ Center for Near-Earth Object Studies
JPL Home Earth Solar System Stars & Galaxies Technology
JPL Solar System Dynamics
BODIES ORBITS EPHEMERIDES TOOLS PHYSICAL DATA DISCOVERY FAQ SITE MAP
JPL Small-Body Database Browser
Search: [ help ]  
5863 Tara (1983 RB)
Classification: Amor [NEO]          SPK-ID: 2005863
Ephemeris | Orbit Diagram | Orbital Elements | Mission Design | Physical Parameters | Discovery Circumstances | Close-Approach Data ]

[ hide orbit diagram ]

For accurate long-term ephemerides, please instead use our Horizons system.This orbit viewer was implemented using two-body methods, and hence should not be used for determining accurate long-term trajectories (over several years or decades) or planetary encounter circumstances.


Orbital Elements at Epoch 2459200.5 (2020-Dec-17.0) TDB
Reference: JPL 231 (heliocentric ecliptic J2000)
 Element Value Uncertainty (1-sigma)   Units 
e .5059235535668408 3.1302e-08  
a 2.222045133166287 5.371e-09 au
q 1.097860163208895 7.0356e-08 au
i 19.49203854826441 4.7238e-06 deg
node 168.900046990047 1.207e-05 deg
peri 115.4948967048821 1.345e-05 deg
M 110.5092548576148 7.7784e-06 deg
tp 2458829.115400546479
(2019-Dec-11.61540055)
2.5326e-05 TDB
period 1209.839447162418
3.31
4.3865e-06
1.201e-08
d
yr
n .2975601439053349 1.0789e-09 deg/d
Q 3.34623010312368 8.0883e-09 au
  Orbit Determination Parameters
   # obs. used (total)      1074  
   data-arc span      13668 days (37.42 yr)  
   first obs. used      1983-09-07  
   last obs. used      2021-02-07  
   planetary ephem.      DE431  
   SB-pert. ephem.      SB431-N16  
   condition code      0  
   norm. resid. RMS      .49718  
   source      ORB  
   producer      Otto Matic  
   solution date      2021-Mar-04 05:53:42  

Additional Information
 Earth MOID = .234244 au 
 Jupiter MOID = 2.25437 au 
 T_jup = 3.404 
[ show covariance matrix ]

Ephemeris | Orbit Diagram | Orbital Elements | Mission Design | Physical Parameters | Discovery Circumstances | Close-Approach Data ]

Physical Parameter Table
Parameter Symbol Value Units Sigma Reference Notes
absolute magnitude H 15.7   n/a MPO431565  
diameter diameter 1.345 km 0.502 urn:nasa:pds:neowise_diameters_albedos::2.0[neos] (http://adsabs.harvard.edu/abs/2017AJ....154..168M)  
rotation period rot_per 5.867 h n/a LCDB (Rev. 2020-October); Warner et al., 2009 Result based on less than full coverage, so that the period may be wrong by 30 percent or so.
Published Reference List:
[Warner, B.D. (2016) Minor Planet Bull. 43, 240-250.]
[Warner, B.D. (2016) Minor Planet Bull. 43, 311-319.]
geometric albedo albedo 0.488   0.158 urn:nasa:pds:neowise_diameters_albedos::2.0[neos] (http://adsabs.harvard.edu/abs/2017AJ....154..168M)  

5863 Tara (1983 RB)          Discovered 1983-Sep-07 by Shoemaker, C. S. at Palomar
Reference: DISCOVERY.DBLast Updated: 2003-08-29

[ show close-approach data ]
Ephemeris | Orbit Diagram | Orbital Elements | Mission Design | Physical Parameters | Discovery Circumstances | Close-Approach Data ]
ABOUT SSD CREDITS/AWARDS PRIVACY/COPYRIGHT GLOSSARY LINKS
FirstGov 2021-Apr-10 23:36 UT
(server date/time)  
NASA Home Page
Site Manager:   Ryan S. Park
Webmaster  Alan B. Chamberlin